ROMMA est une association bénévole à but non lucratif. Votre soutien est indispensable : ADHERER à ROMMA ou FAIRE un DON

Chambon - (38, Isère)

Oisans (2460 m)   Longitude: 06° 10' 42" E   Latitude: 45° 01' 32" N Station partenaire n°803
 

Détail journalier du     <<     >>

Température Humidité Vent Dir Rafale Dir. rafale Neige 1 Neige 2
Heure (°C) (%) (km/h) (km/h) (cm) (cm)
01:00 3.78522SO44SO04
02:00 1.49815SO36SO03
03:00 -0.210016SSO27SO00
04:00 0.710013SSO25OSO04
05:00 0.710012OSO25OSO04
06:00 0.11009SO20OSO00
07:00 -0.210010SO18SO016
08:00 -0.19811SSO18SSO00
09:00 0.0925S13SO04
10:00 1.5878NNE22NNE04
11:00 1.88614NNE24NE03
12:00 1.5989NE19NE03
13:00 2.2968NNE19NNE03
14:00 1.7978NNE15NNE04
15:00 2.59213NE31NE03
16:00 2.99313NNE29NE03
17:00 2.29811NNE21NNE04
18:00 1.810015NNE32NE03
19:00 1.39819NE36NE03
20:00 1.29418NE40NE03
21:00 1.19223NE42NE03
22:00 0.69816NNE33NE03
23:00 0.110012NNE36NE03
minuit -1.29317NNE39NE04

Graphique du 02-10-2019

 

Serveur OMMA